• în Republica Moldova
  • Lista ţărilor
  • Pe 7 zile
  • Temperatura apei
  • Hartă satelitară
  • Meteo pe hartă
  • Widget-uri
  • user-avatar
    Intrare

    Meteo pe oră la Graz

    Astăzi, 28 Martie, Marţi

    Timp Temperatura Precipitaţii Vânt Presiune Umiditate
    00:00 +3°C° 0 mm 1 m/s 728 mmHg 82%
    01:00 +3°C° 0 mm 1 m/s 728 mmHg 82%
    02:00 +3°C° 0 mm 1 m/s 728 mmHg 81%
    03:00 +3°C° 0 mm 1 m/s 728 mmHg 81%
    04:00 +3°C° 0 mm 1 m/s 728 mmHg 81%
    05:00 +4°C° 0 mm 1 m/s 728 mmHg 75%
    06:00 +6°C° 0 mm 1 m/s 728 mmHg 70%
    07:00 +8°C° 0 mm 1 m/s 729 mmHg 52%
    08:00 +10°C° 0 mm 1 m/s 729 mmHg 47%
    09:00 +13°C° 0 mm 1 m/s 729 mmHg 42%
    10:00 +15°C° 0 mm 1 m/s 729 mmHg 37%
    11:00 +16°C° 0 mm 1 m/s 729 mmHg 36%
    12:00 +18°C° 0 mm 1 m/s 729 mmHg 36%
    13:00 +19°C° 0 mm 1 m/s 729 mmHg 35%
    14:00 +19°C° 0 mm 1 m/s 729 mmHg 38%
    15:00 +18°C° 0 mm 1 m/s 728 mmHg 41%
    16:00 +18°C° 0 mm 1 m/s 728 mmHg 44%
    17:00 +14°C° 0 mm 1 m/s 728 mmHg 58%
    18:00 +10°C° 0 mm 1 m/s 728 mmHg 71%
    19:00 +7°C° 0 mm 1 m/s 727 mmHg 84%
    20:00 +7°C° 0 mm 1 m/s 728 mmHg 85%
    21:00 +6°C° 0 mm 1 m/s 728 mmHg 86%
    22:00 +6°C° 0 mm 1 m/s 728 mmHg 87%
    23:00 +7°C° 0 mm 1 m/s 729 mmHg 86%

    Mâine, 29 Martie, Miercuri

    Timp Temperatura Precipitaţii Vânt Presiune Umiditate
    00:00 +7°C° 0 mm 1 m/s 729 mmHg 86%
    01:00 +7°C° 0 mm 1 m/s 729 mmHg 85%
    02:00 +7°C° 0 mm 1 m/s 729 mmHg 86%
    03:00 +7°C° 0 mm 1 m/s 729 mmHg 88%
    04:00 +6°C° 0 mm 2 m/s 729 mmHg 89%
    05:00 +7°C° 0 mm 1 m/s 729 mmHg 87%
    06:00 +8°C° 0 mm 1 m/s 730 mmHg 86%
    07:00 +9°C° 0 mm 1 m/s 730 mmHg 84%
    08:00 +11°C° 0 mm 1 m/s 730 mmHg 75%
    09:00 +14°C° 0 mm 1 m/s 730 mmHg 67%
    10:00 +18°C° 0 mm 1 m/s 731 mmHg 58%
    11:00 +18°C° 0 mm 1 m/s 730 mmHg 55%
    12:00 +19°C° 0 mm 1 m/s 730 mmHg 53%
    13:00 +20°C° 0 mm 1 m/s 730 mmHg 51%
    14:00 +20°C° 0 mm 1 m/s 730 mmHg 53%
    15:00 +19°C° 0 mm 1 m/s 729 mmHg 55%
    16:00 +19°C° 0 mm 1 m/s 729 mmHg 58%
    17:00 +15°C° 0 mm 1 m/s 729 mmHg 67%
    18:00 +13°C° 0 mm 1 m/s 729 mmHg 77%
    19:00 +10°C° 0 mm 1 m/s 729 mmHg 86%
    20:00 +10°C° 0 mm 1 m/s 729 mmHg 87%
    21:00 +10°C° 0 mm 1 m/s 730 mmHg 88%
    22:00 +10°C° 0 mm 1 m/s 730 mmHg 89%
    23:00 +9°C° 0 mm 1 m/s 730 mmHg 89%

    Poimâine, 30 Martie, Joi

    Timp Temperatura Precipitaţii Vânt Presiune Umiditate
    00:00 +8°C° 0 mm 2 m/s 731 mmHg 90%
    01:00 +8°C° 0 mm 2 m/s 731 mmHg 91%
    02:00 +7°C° 0 mm 2 m/s 731 mmHg 92%
    03:00 +8°C° 0 mm 1 m/s 731 mmHg 93%
    04:00 +8°C° 0 mm 1 m/s 731 mmHg 93%
    05:00 +8°C° 0 mm 1 m/s 731 mmHg 91%
    06:00 +9°C° 0 mm 1 m/s 731 mmHg 89%
    07:00 +10°C° 0 mm 1 m/s 731 mmHg 87%
    08:00 +12°C° 0 mm 1 m/s 731 mmHg 78%
    09:00 +14°C° 0 mm 1 m/s 732 mmHg 68%
    10:00 +16°C° 0 mm 0 m/s 732 mmHg 58%
    11:00 +16°C° 0 mm 0 m/s 732 mmHg 55%
    12:00 +19°C° 0 mm 1 m/s 731 mmHg 53%
    13:00 +20°C° 0 mm 1 m/s 731 mmHg 50%
    14:00 +20°C° 0 mm 1 m/s 731 mmHg 52%
    15:00 +19°C° 0 mm 1 m/s 730 mmHg 54%
    16:00 +19°C° 0 mm 1 m/s 730 mmHg 56%
    17:00 +16°C° 0 mm 1 m/s 730 mmHg 65%
    18:00 +14°C° 0 mm 1 m/s 730 mmHg 74%
    19:00 +12°C° 0 mm 1 m/s 730 mmHg 84%
    20:00 +11°C° 0 mm 1 m/s 730 mmHg 87%
    21:00 +11°C° 0 mm 1 m/s 730 mmHg 90%
    22:00 +9°C° 0 mm 0 m/s 731 mmHg 93%
    23:00 +9°C° 0 mm 0 m/s 730 mmHg 93%

    31 Martie, Vineri

    Timp Temperatura Precipitaţii Vânt Presiune Umiditate
    00:00 +8°C° 0 mm 0 m/s 730 mmHg 94%
    01:00 +8°C° 0 mm 0 m/s 730 mmHg 95%
    02:00 +7°C° 0 mm 0 m/s 730 mmHg 95%
    03:00 +7°C° 0 mm 0 m/s 729 mmHg 96%
    04:00 +7°C° 0 mm 0 m/s 729 mmHg 96%
    05:00 +8°C° 0 mm 0 m/s 729 mmHg 95%
    06:00 +10°C° 0 mm 1 m/s 729 mmHg 94%
    07:00 +11°C° 0 mm 1 m/s 730 mmHg 93%
    08:00 +12°C° 0 mm 1 m/s 729 mmHg 86%
    09:00 +14°C° 0 mm 1 m/s 729 mmHg 79%
    10:00 +15°C° 0 mm 2 m/s 729 mmHg 72%
    11:00 +16°C° 0,1 mm 2 m/s 729 mmHg 71%
    12:00 +16°C° 0,1 mm 2 m/s 728 mmHg 69%
    13:00 +17°C° 0,1 mm 3 m/s 728 mmHg 68%
    14:00 +17°C° 0 mm 3 m/s 727 mmHg 69%
    15:00 +17°C° 0 mm 2 m/s 727 mmHg 69%
    16:00 +17°C° 0 mm 2 m/s 726 mmHg 70%
    17:00 +15°C° 0 mm 2 m/s 726 mmHg 77%
    18:00 +14°C° 0 mm 2 m/s 726 mmHg 84%
    19:00 +12°C° 0 mm 2 m/s 726 mmHg 91%
    20:00 +12°C° 0 mm 2 m/s 726 mmHg 92%
    21:00 +10°C° 0 mm 2 m/s 726 mmHg 93%
    22:00 +11°C° 0 mm 1 m/s 726 mmHg 95%
    23:00 +10°C° 0 mm 1 m/s 726 mmHg 95%

    1 Aprilie, Sâmbătă

    Timp Temperatura Precipitaţii Vânt Presiune Umiditate
    00:00 +10°C° 0 mm 1 m/s 725 mmHg 95%
    01:00 +10°C° 0 mm 1 m/s 725 mmHg 96%
    02:00 +9°C° 0 mm 1 m/s 725 mmHg 96%
    03:00 +9°C° 0 mm 1 m/s 725 mmHg 97%
    04:00 +8°C° 0 mm 1 m/s 724 mmHg 97%
    05:00 +9°C° 0 mm 1 m/s 724 mmHg 96%
    06:00 +10°C° 0 mm 1 m/s 724 mmHg 94%
    07:00 +10°C° 0 mm 1 m/s 724 mmHg 93%
    08:00 +12°C° 0 mm 1 m/s 725 mmHg 84%
    09:00 +14°C° 0 mm 1 m/s 725 mmHg 76%
    10:00 +15°C° 0 mm 1 m/s 725 mmHg 67%
    11:00 +16°C° 0 mm 2 m/s 724 mmHg 62%
    12:00 +17°C° 0 mm 2 m/s 724 mmHg 57%
    13:00 +19°C° 0 mm 3 m/s 724 mmHg 52%
    14:00 +18°C° 0 mm 3 m/s 724 mmHg 52%
    15:00 +18°C° 0 mm 3 m/s 723 mmHg 53%
    16:00 +18°C° 0 mm 3 m/s 723 mmHg 53%
    17:00 +16°C° 0 mm 3 m/s 723 mmHg 64%
    18:00 +14°C° 0 mm 2 m/s 723 mmHg 75%
    19:00 +10°C° 0 mm 2 m/s 723 mmHg 85%
    20:00 +10°C° 0 mm 2 m/s 723 mmHg 87%
    21:00 +10°C° 0 mm 1 m/s 723 mmHg 90%
    22:00 +9°C° 0 mm 1 m/s 723 mmHg 92%
    23:00 +9°C° 0 mm 1 m/s 723 mmHg 93%

    2 Aprilie, Duminică

    Timp Temperatura Precipitaţii Vânt Presiune Umiditate
    00:00 +9°C° 0 mm 1 m/s 723 mmHg 93%
    01:00 +8°C° 0 mm 1 m/s 723 mmHg 94%
    02:00 +8°C° 0 mm 1 m/s 723 mmHg 94%
    03:00 +7°C° 0 mm 1 m/s 723 mmHg 94%
    04:00 +7°C° 0 mm 1 m/s 723 mmHg 94%
    05:00 +8°C° 0 mm 1 m/s 724 mmHg 90%
    06:00 +9°C° 0 mm 1 m/s 724 mmHg 87%
    07:00 +10°C° 0 mm 1 m/s 725 mmHg 84%
    08:00 +12°C° 0 mm 1 m/s 725 mmHg 73%
    09:00 +14°C° 0 mm 1 m/s 725 mmHg 61%
    10:00 +18°C° 0 mm 1 m/s 725 mmHg 50%
    11:00 +18°C° 0 mm 1 m/s 725 mmHg 47%
    12:00 +18°C° 0 mm 2 m/s 725 mmHg 44%
    13:00 +19°C° 0 mm 2 m/s 725 mmHg 41%
    14:00 +19°C° 0 mm 2 m/s 724 mmHg 43%
    15:00 +19°C° 0 mm 2 m/s 724 mmHg 44%
    16:00 +18°C° 0 mm 2 m/s 724 mmHg 46%
    17:00 +16°C° 0 mm 2 m/s 724 mmHg 58%
    18:00 +13°C° 0 mm 1 m/s 724 mmHg 70%
    19:00 +11°C° 0 mm 1 m/s 724 mmHg 82%
    20:00 +10°C° 0,1 mm 1 m/s 724 mmHg 85%
    21:00 +9°C° 0,1 mm 1 m/s 724 mmHg 88%
    22:00 +7°C° 0,1 mm 0 m/s 724 mmHg 91%
    23:00 +7°C° 0 mm 0 m/s 724 mmHg 91%
    Arată mai mult